CZ-6A DEB, 56607

Orbit data source: Space-Track

CZ-6A DEB, 56607 is space debris in SSO originally from a launch on Fri, 11 Nov 2022 UTC launched from the Taiyaun Space Center, China (TSC). Debris objects in space refer to the collection of defunct objects orbiting the Earth. Examples of debris include non-operational satellites, rocket bodies, and fragments generated from explosions, collisions, or faulty payload assembly.

Loading next visibility...
Identifier
56607, 2022-151AEF
Orbit
SSO
Country
Flag of CNCN / PRC
Related business
Manufacturer
SAST
Mission
Spacecraft
Bus & Motor
Unknown
Mass
Unknown
Launch date (UTC)
2022-11-11 (4 years ago)
Launch vehicle
Unknown
Launch site
Taiyaun Space Center, China (TSC)
Object type
Payload
Rocket body
Debris
Shape & HBR
Unknown shape, 0.1 m
Radar Cross Section
Small (<0.1 m²)

Expand to show TLE details & history
Last TLE update: 1 day ago

TLE from 1 day ago
0 CZ-6A DEB
1 56607U 22151AEF 26144.01811122  .00000816  00000-0  30872-3 0  9996
2 56607  98.6908 170.0132 0115912 165.5051 194.9503 14.30235438160654
Epoch: 2026-05-24T00:26Z
TLE epoch observation values (Epoch: 2026-05-24T00:26:04.809Z)
Latitude
-0°
Longitude
-78.13312°
Altitude
874.238 km
Speed
7.374 km/s
True Right ascension
11h 20m 03s
True Declination
0° 00' 00"
Sunlit
Object was in daylight at epoch
Visualization orbit readout
Latitude
Unknown
Longitude
Unknown
Altitude
Unknown
Speed
Unknown
Apparent Right ascension
Unknown
Apparent Declination
Unknown
Sunlit
N/A
Visualization observer readout
Local Sidereal Time
10:15:35
Azimuth
Unknown
Elevation
Unknown
Doppler factor
Unknown
Orbital elements
Apogee altitude
871.153 km
Perigee altitude
705.022 km
Semi-major axis
7,166.224 km
Eccentricity
0.01159
Inclination
98.6908°
RAAN
170.0132°
Arg. of periapsis
165.5051°
True anomaly
194.61237°
Mean anomaly
194.9503°
Eccentric anomaly
194.78087°
Mean motion
3.57773 °/min
Orbital period
100.62 mins
BSTAR
0.00030872
Loading maneuver chart data...
Computing Atmospheric mass density...
Loading historical data...
Loading historical data...
Loading historical data...
Loading historical data...
Loading historical data...
Loading historical data...
Loading historical data...

Documentation

Showing up to 5 results
|